Location: Caixon
(43.4106°N, 0.0273°E)
Time: 20:54:42
(UTC+00:00)

Cosmos 2082 Rocket - Pass Details

Date: 16 October 2021
Orbit: 834 x 853 km, 71.0° (Epoch: 07 December)

Event Time Altitude Azimuth Distance (km) Brightness Sun altitude
Exits shadow 03:27:25 34° 145° (SE) 1,361 3.3 -30.9°
Maximum altitude 03:29:01 42° 107° (ESE) 1,192 3.2 -30.6°
Drops below altitude 10° 03:34:22 10° 38° (NE) 2,489 5.3 -29.7°
Sets 03:36:56 0° 31° (NNE) 3,428 6.0 -29.2°
